{"data":{"norad_id":41026,"intl_designator":"2015-064A","name":"YAOGAN-28","alt_names":[],"object_type":"PAYLOAD","status":"ACTIVE","operator":null,"country":"PRC","launch_date":"2015-11-08","launch_site_code":"TAISC","launch_vehicle":null,"mission":null,"orbit_class":"UNKNOWN","rcs_meters":4.8055,"size_class":null,"mass_kg":null,"dimensions":null,"purposes":["earth_obs"],"wikipedia_slug":null,"has_3d_model":false,"image_url":null,"decayed_at":null,"tle_current":{"epoch":"2026-09-20T05:10:39.080640Z","epoch_age_seconds":39108,"freshness":"FRESH","line1":"1 41026U 15064A   26263.21573010  .00005400  00000+0  19715-3 0  9991","line2":"2 41026  97.3204  39.6920 0009616 206.9832 153.0909 15.28497452605196","mean_motion":15.28497452,"eccentricity":0.0009616,"inclination_deg":97.3204,"raan_deg":39.692,"arg_perigee_deg":206.9832,"mean_anomaly_deg":153.0909,"bstar":0.00019715,"rev_number":60519,"period_min":94.210166861305,"perigee_km":473.70821273004,"apogee_km":486.89836509367,"semimajor_km":6858.4402889119,"source":"CELESTRAK","updated_at":"2026-09-20T09:00:33.965231Z"}}}